QPF
0.00 0.00 0.00 0.00 0.01 0.01 0.02 0.03 0.03 0.03 0.02 0.03 0.02 0.02 0.03 0.03 0.06 0.09 0.10 0.10 0.10 0.08 0.07 0.08 0.08 0.08 0.10 0.12 0.12 0.11 0.10 0.09 0.07 0.06 0.05 0.05 0.05 0.05
0.00 0.00 0.00 0.00 0.01 0.01 0.02 0.02 0.03 0.03 0.03 0.03 0.02 0.02 0.03 0.03 0.04 0.04 0.06 0.11 0.10 0.09 0.07 0.07 0.07 0.07 0.08 0.09 0.09 0.08 0.08 0.08 0.09 0.07 0.06 0.05 0.05 0.06
0.00 0.00 0.00 0.00 0.00 0.01 0.01 0.02 0.02 0.03 0.03 0.03 0.02 0.02 0.03 0.03 0.03 0.03 0.04 0.07 0.08 0.09 0.07 0.05 0.06 0.07 0.08 0.08 0.09 0.08 0.07 0.06 0.07 0.06 0.06 0.05 0.04 0.04
0.00 0.00 0.00 0.00 0.00 0.00 0.01 0.02 0.03 0.03 0.03 0.04 0.03 0.03 0.02 0.03 0.04 0.03 0.04 0.05 0.05 0.07 0.08 0.06 0.06 0.07 0.07 0.07 0.07 0.07 0.06 0.06 0.05 0.04 0.05 0.05 0.05 0.04
0.00 0.00 0.00 0.00 0.00 0.00 0.00 0.01 0.02 0.04 0.03 0.03 0.05 0.04 0.02 0.02 0.03 0.03 0.04 0.05 0.05 0.06 0.08 0.08 0.05 0.05 0.06 0.07 0.07 0.07 0.06 0.06 0.05 0.04 0.04 0.05 0.05 0.05
0.00 0.00 0.00 0.00 0.00 0.00 0.00 0.00 0.01 0.02 0.03 0.03 0.05 0.05 0.02 0.02 0.02 0.02 0.03 0.05 0.06 0.06 0.07 0.08 0.08 0.07 0.06 0.06 0.06 0.06 0.07 0.07 0.06 0.05 0.05 0.05 0.04 0.04
0.00 0.00 0.01 0.01 0.01 0.01 0.01 0.01 0.01 0.02 0.03 0.03 0.03 0.04 0.03 0.02 0.01 0.01 0.02 0.03 0.06 0.07 0.08 0.08 0.09 0.08 0.06 0.06 0.06 0.05 0.05 0.05 0.06 0.07 0.07 0.06 0.06 0.04
0.00 0.00 0.01 0.01 0.02 0.02 0.02 0.02 0.02 0.02 0.03 0.04 0.04 0.03 0.02 0.02 0.02 0.02 0.02 0.03 0.04 0.04 0.06 0.08 0.11 0.10 0.09 0.07 0.06 0.05 0.05 0.05 0.05 0.06 0.07 0.07 0.07 0.06
0.00 0.00 0.01 0.01 0.01 0.01 0.01 0.01 0.02 0.02 0.03 0.04 0.04 0.02 0.02 0.02 0.03 0.03 0.03 0.03 0.02 0.03 0.06 0.06 0.08 0.10 0.10 0.10 0.10 0.09 0.08 0.07 0.06 0.06 0.06 0.06 0.06 0.06
0.00 0.00 0.00 0.01 0.01 0.00 0.00 0.00 0.01 0.01 0.01 0.02 0.02 0.01 0.01 0.02 0.03 0.04 0.04 0.04 0.04 0.04 0.05 0.05 0.06 0.07 0.08 0.11 0.13 0.11 0.09 0.09 0.09 0.08 0.09 0.08 0.08 0.07
0.00 0.00 0.00 0.00 0.01 0.01 0.01 0.01 0.01 0.01 0.02 0.02 0.02 0.02 0.01 0.02 0.03 0.04 0.04 0.05 0.04 0.04 0.04 0.04 0.04 0.06 0.07 0.08 0.10 0.13 0.15 0.13 0.11 0.11 0.11 0.12 0.12 0.13
0.00 0.00 0.00 0.00 0.01 0.01 0.01 0.01 0.01 0.01 0.01 0.02 0.02 0.02 0.02 0.01 0.02 0.03 0.04 0.05 0.04 0.04 0.04 0.05 0.04 0.05 0.06 0.05 0.06 0.07 0.10 0.15 0.18 0.18 0.17 0.16 0.15 0.16
0.00 0.00 0.00 0.00 0.00 0.01 0.01 0.01 0.01 0.01 0.01 0.02 0.02 0.02 0.02 0.02 0.02 0.03 0.04 0.05 0.05 0.05 0.05 0.06 0.05 0.06 0.06 0.05 0.05 0.07 0.09 0.11 0.13 0.16 0.20 0.21 0.21 0.21
0.00 0.00 0.00 0.00 0.00 0.00 0.00 0.01 0.02 0.02 0.02 0.02 0.02 0.02 0.03 0.03 0.03 0.03 0.04 0.04 0.05 0.05 0.07 0.08 0.07 0.07 0.07 0.06 0.06 0.06 0.07 0.08 0.10 0.12 0.16 0.21 0.24 0.27
0.00 0.00 0.00 0.00 0.00 0.00 0.00 0.00 0.00 0.01 0.02 0.03 0.03 0.04 0.05 0.05 0.05 0.05 0.05 0.05 0.06 0.05 0.06 0.07 0.07 0.09 0.09 0.09 0.08 0.07 0.08 0.09 0.10 0.10 0.12 0.15 0.19 0.24
0.00 0.00 0.00 0.00 0.00 0.00 0.00 0.00 0.00 0.00 0.01 0.02 0.02 0.03 0.04 0.04 0.05 0.05 0.05 0.06 0.06 0.05 0.06 0.07 0.08 0.09 0.08 0.08 0.09 0.08 0.09 0.09 0.11 0.12 0.13 0.14 0.16 0.18
0.00 0.00 0.00 0.00 0.00 0.00 0.00 0.00 0.00 0.00 0.01 0.01 0.01 0.02 0.03 0.04 0.04 0.05 0.06 0.07 0.07 0.06 0.05 0.07 0.07 0.07 0.08 0.09 0.09 0.08 0.08 0.09 0.12 0.14 0.16 0.17 0.17 0.18
0.00 0.00 0.00 0.00 0.00 0.00 0.00 0.00 0.00 0.00 0.00 0.00 0.01 0.02 0.02 0.03 0.04 0.04 0.04 0.05 0.05 0.05 0.05 0.05 0.05 0.07 0.08 0.07 0.06 0.06 0.06 0.08 0.09 0.13 0.17 0.21 0.22 0.19
0.00 0.00 0.00 0.00 0.00 0.00 0.00 0.00 0.00 0.00 0.00 0.00 0.01 0.01 0.02 0.02 0.03 0.04 0.04 0.05 0.04 0.04 0.03 0.03 0.04 0.05 0.08 0.07 0.05 0.04 0.05 0.06 0.09 0.12 0.15 0.16 0.18 0.20
0.00 0.00 0.00 0.00 0.00 0.00 0.00 0.00 0.00 0.00 0.00 0.00 0.00 0.00 0.01 0.02 0.03 0.03 0.04 0.05 0.05 0.05 0.05 0.04 0.04 0.04 0.06 0.07 0.06 0.05 0.05 0.06 0.09 0.11 0.13 0.15 0.17 0.21
0.00 0.00 0.00 0.00 0.00 0.00 0.00 0.00 0.00 0.00 0.00 0.00 0.00 0.01 0.01 0.01 0.02 0.03 0.04 0.06 0.07 0.06 0.06 0.06 0.07 0.07 0.08 0.08 0.08 0.06 0.06 0.07 0.08 0.09 0.11 0.14 0.17 0.19
0.01 0.01 0.01 0.01 0.00 0.00 0.00 0.00 0.00 0.00 0.00 0.00 0.01 0.01 0.01 0.01 0.02 0.02 0.02 0.03 0.04 0.05 0.06 0.07 0.08 0.09 0.09 0.10 0.09 0.07 0.06 0.07 0.09 0.12 0.13 0.14 0.13 0.13
0.00 0.00 0.00 0.00 0.00 0.00 0.00 0.00 0.00 0.00 0.00 0.01 0.01 0.01 0.01 0.01 0.02 0.02 0.02 0.03 0.04 0.05 0.06 0.07 0.08 0.10 0.11 0.11 0.11 0.10 0.09 0.09 0.09 0.10 0.11 0.13 0.13 0.12
MSLP
1014.30 1014.25 1014.18 1014.06 1013.89 1013.66 1013.36 1013.03 1012.68 1012.32 1011.99 1011.69 1011.42 1011.20 1011.02 1010.87 1010.76 1010.69 1010.69 1010.75 1010.91 1011.14 1011.46 1011.84 1012.27 1012.72 1013.17 1013.60 1014.01 1014.41 1014.80 1015.21 1015.64 1016.09 1016.56 1017.04 1017.51 1017.94
1014.15 1014.09 1013.99 1013.85 1013.65 1013.40 1013.11 1012.80 1012.48 1012.17 1011.88 1011.62 1011.39 1011.17 1010.97 1010.79 1010.62 1010.50 1010.42 1010.40 1010.48 1010.65 1010.90 1011.24 1011.63 1012.06 1012.49 1012.93 1013.35 1013.77 1014.18 1014.62 1015.07 1015.55 1016.05 1016.55 1017.04 1017.49
1013.90 1013.82 1013.69 1013.53 1013.32 1013.08 1012.81 1012.54 1012.27 1012.02 1011.79 1011.58 1011.38 1011.18 1010.97 1010.76 1010.54 1010.35 1010.20 1010.11 1010.11 1010.20 1010.40 1010.68 1011.03 1011.42 1011.84 1012.27 1012.70 1013.12 1013.56 1014.01 1014.49 1014.99 1015.51 1016.03 1016.54 1017.02
1013.60 1013.49 1013.35 1013.17 1012.96 1012.74 1012.50 1012.28 1012.07 1011.88 1011.70 1011.54 1011.37 1011.18 1010.96 1010.72 1010.46 1010.21 1010.00 1009.84 1009.77 1009.81 1009.94 1010.17 1010.48 1010.84 1011.23 1011.65 1012.07 1012.50 1012.94 1013.41 1013.90 1014.42 1014.95 1015.49 1016.02 1016.52
1013.26 1013.13 1012.98 1012.80 1012.60 1012.39 1012.20 1012.02 1011.86 1011.71 1011.58 1011.45 1011.29 1011.10 1010.88 1010.61 1010.32 1010.03 1009.77 1009.57 1009.46 1009.44 1009.53 1009.72 1009.98 1010.31 1010.67 1011.06 1011.47 1011.90 1012.34 1012.81 1013.31 1013.83 1014.38 1014.93 1015.47 1015.98
1012.90 1012.76 1012.60 1012.42 1012.24 1012.06 1011.89 1011.74 1011.61 1011.49 1011.37 1011.25 1011.09 1010.89 1010.65 1010.37 1010.07 1009.76 1009.49 1009.27 1009.13 1009.09 1009.15 1009.31 1009.53 1009.82 1010.16 1010.52 1010.90 1011.31 1011.74 1012.20 1012.70 1013.22 1013.77 1014.32 1014.88 1015.41
1012.51 1012.37 1012.21 1012.05 1011.88 1011.71 1011.56 1011.42 1011.29 1011.16 1011.04 1010.89 1010.72 1010.51 1010.25 1009.97 1009.67 1009.38 1009.12 1008.91 1008.79 1008.75 1008.80 1008.93 1009.13 1009.39 1009.68 1010.00 1010.35 1010.72 1011.13 1011.57 1012.06 1012.57 1013.12 1013.68 1014.24 1014.78
1012.07 1011.94 1011.81 1011.66 1011.51 1011.35 1011.19 1011.04 1010.88 1010.72 1010.56 1010.38 1010.17 1009.94 1009.69 1009.42 1009.15 1008.90 1008.69 1008.53 1008.44 1008.43 1008.48 1008.60 1008.77 1008.99 1009.23 1009.50 1009.80 1010.13 1010.50 1010.91 1011.37 1011.88 1012.42 1012.98 1013.54 1014.10
1011.57 1011.48 1011.38 1011.26 1011.12 1010.96 1010.79 1010.60 1010.40 1010.19 1009.97 1009.74 1009.50 1009.26 1009.02 1008.78 1008.57 1008.38 1008.24 1008.16 1008.12 1008.14 1008.21 1008.32 1008.46 1008.62 1008.80 1009.00 1009.24 1009.51 1009.83 1010.20 1010.64 1011.12 1011.65 1012.21 1012.79 1013.36
1011.01 1010.97 1010.92 1010.84 1010.72 1010.57 1010.38 1010.15 1009.89 1009.61 1009.33 1009.05 1008.78 1008.54 1008.32 1008.14 1007.99 1007.90 1007.85 1007.84 1007.87 1007.93 1008.01 1008.10 1008.19 1008.28 1008.39 1008.51 1008.66 1008.86 1009.11 1009.44 1009.83 1010.30 1010.81 1011.37 1011.96 1012.55
1010.41 1010.45 1010.46 1010.43 1010.34 1010.19 1009.97 1009.70 1009.39 1009.06 1008.72 1008.39 1008.10 1007.86 1007.68 1007.56 1007.51 1007.50 1007.54 1007.62 1007.70 1007.79 1007.86 1007.91 1007.94 1007.95 1007.96 1007.99 1008.04 1008.15 1008.34 1008.60 1008.95 1009.39 1009.89 1010.45 1011.04 1011.65
1009.81 1009.92 1010.01 1010.03 1009.98 1009.84 1009.61 1009.31 1008.95 1008.56 1008.18 1007.83 1007.53 1007.31 1007.17 1007.12 1007.14 1007.22 1007.34 1007.47 1007.59 1007.68 1007.73 1007.72 1007.68 1007.60 1007.50 1007.42 1007.37 1007.39 1007.49 1007.70 1008.00 1008.39 1008.87 1009.42 1010.02 1010.65
1009.24 1009.43 1009.59 1009.67 1009.66 1009.54 1009.31 1008.98 1008.59 1008.17 1007.75 1007.38 1007.08 1006.88 1006.78 1006.79 1006.87 1007.01 1007.18 1007.35 1007.47 1007.55 1007.55 1007.48 1007.34 1007.16 1006.96 1006.77 1006.63 1006.56 1006.58 1006.71 1006.96 1007.31 1007.77 1008.30 1008.90 1009.54
1008.73 1009.00 1009.22 1009.36 1009.38 1009.28 1009.04 1008.71 1008.29 1007.85 1007.42 1007.04 1006.75 1006.56 1006.49 1006.53 1006.65 1006.82 1007.00 1007.17 1007.28 1007.31 1007.25 1007.10 1006.88 1006.61 1006.31 1006.03 1005.80 1005.65 1005.61 1005.68 1005.87 1006.17 1006.58 1007.09 1007.67 1008.31
1008.34 1008.65 1008.92 1009.09 1009.14 1009.04 1008.82 1008.47 1008.05 1007.60 1007.16 1006.77 1006.48 1006.30 1006.24 1006.28 1006.40 1006.57 1006.73 1006.86 1006.93 1006.90 1006.77 1006.55 1006.25 1005.91 1005.54 1005.20 1004.91 1004.71 1004.61 1004.62 1004.76 1005.01 1005.37 1005.83 1006.38 1007.00
1008.07 1008.40 1008.68 1008.87 1008.93 1008.84 1008.61 1008.27 1007.84 1007.38 1006.94 1006.55 1006.25 1006.07 1005.99 1006.00 1006.09 1006.21 1006.32 1006.39 1006.38 1006.28 1006.09 1005.81 1005.46 1005.07 1004.68 1004.30 1003.99 1003.76 1003.63 1003.60 1003.69 1003.89 1004.19 1004.59 1005.08 1005.66
1007.96 1008.28 1008.55 1008.72 1008.77 1008.68 1008.44 1008.10 1007.68 1007.22 1006.77 1006.38 1006.06 1005.84 1005.72 1005.68 1005.70 1005.74 1005.77 1005.75 1005.67 1005.50 1005.25 1004.93 1004.56 1004.16 1003.76 1003.40 1003.10 1002.87 1002.74 1002.69 1002.75 1002.89 1003.13 1003.46 1003.89 1004.40
1008.02 1008.30 1008.53 1008.67 1008.70 1008.59 1008.35 1008.01 1007.59 1007.14 1006.69 1006.28 1005.94 1005.68 1005.50 1005.38 1005.30 1005.24 1005.16 1005.04 1004.87 1004.63 1004.34 1003.99 1003.62 1003.25 1002.89 1002.57 1002.32 1002.12 1002.01 1001.96 1002.00 1002.10 1002.28 1002.54 1002.89 1003.32
1008.28 1008.49 1008.66 1008.76 1008.75 1008.62 1008.37 1008.03 1007.63 1007.19 1006.74 1006.32 1005.95 1005.64 1005.39 1005.17 1004.99 1004.80 1004.61 1004.38 1004.11 1003.81 1003.48 1003.12 1002.77 1002.44 1002.14 1001.89 1001.69 1001.56 1001.48 1001.46 1001.48 1001.56 1001.70 1001.90 1002.17 1002.52
1008.70 1008.84 1008.95 1008.99 1008.95 1008.80 1008.55 1008.22 1007.84 1007.41 1006.98 1006.56 1006.16 1005.80 1005.46 1005.15 1004.85 1004.54 1004.22 1003.89 1003.53 1003.16 1002.78 1002.42 1002.09 1001.80 1001.57 1001.39 1001.26 1001.19 1001.16 1001.17 1001.21 1001.28 1001.38 1001.54 1001.75 1002.04
1009.27 1009.34 1009.38 1009.37 1009.29 1009.13 1008.89 1008.58 1008.22 1007.83 1007.41 1006.99 1006.58 1006.17 1005.77 1005.36 1004.95 1004.53 1004.09 1003.64 1003.19 1002.75 1002.34 1001.96 1001.64 1001.38 1001.19 1001.07 1001.01 1000.99 1001.01 1001.06 1001.12 1001.20 1001.30 1001.43 1001.61 1001.86
1009.92 1009.92 1009.90 1009.85 1009.74 1009.57 1009.34 1009.06 1008.74 1008.38 1007.99 1007.59 1007.16 1006.72 1006.26 1005.78 1005.28 1004.75 1004.21 1003.66 1003.12 1002.61 1002.14 1001.74 1001.41 1001.16 1000.99 1000.90 1000.87 1000.89 1000.95 1001.03 1001.12 1001.22 1001.33 1001.47 1001.65 1001.88
1010.56 1010.50 1010.43 1010.34 1010.21 1010.03 1009.82 1009.57 1009.28 1008.96 1008.61 1008.22 1007.81 1007.36 1006.86 1006.33 1005.75 1005.15 1004.52 1003.89 1003.27 1002.69 1002.16 1001.71 1001.35 1001.08 1000.89 1000.80 1000.77 1000.81 1000.88 1000.97 1001.09 1001.22 1001.36 1001.53 1001.74 1002.00
Thickness
5650 5652 5654 5657 5660 5663 5666 5668 5669 5670 5675 5685 5691 5699 5704 5708 5712 5715 5718 5722 5724 5726 5728 5730 5731 5731 5732 5732 5731 5731 5730 5730 5729 5728 5726 5725 5724 5722
5647 5648 5650 5652 5655 5658 5661 5663 5666 5667 5669 5677 5682 5689 5695 5700 5704 5708 5712 5716 5719 5721 5724 5726 5727 5728 5729 5729 5729 5729 5728 5727 5726 5725 5724 5723 5721 5719
5643 5644 5646 5648 5650 5652 5655 5657 5660 5662 5664 5670 5675 5681 5686 5691 5696 5701 5705 5709 5712 5716 5719 5721 5723 5724 5725 5726 5726 5726 5726 5725 5724 5723 5722 5720 5719 5717
5640 5640 5641 5644 5645 5646 5649 5651 5653 5656 5658 5661 5666 5670 5676 5681 5686 5692 5696 5701 5705 5709 5712 5715 5717 5719 5720 5721 5722 5722 5722 5722 5721 5720 5719 5718 5716 5714
5638 5637 5638 5638 5640 5642 5644 5645 5647 5650 5652 5654 5657 5661 5666 5671 5676 5682 5687 5692 5697 5701 5705 5708 5711 5713 5715 5716 5717 5718 5718 5718 5718 5717 5716 5715 5713 5711
5637 5636 5636 5636 5636 5638 5639 5640 5642 5643 5644 5646 5649 5653 5657 5662 5666 5671 5677 5683 5687 5693 5697 5701 5704 5706 5708 5710 5712 5713 5713 5713 5713 5713 5712 5711 5709 5708
5636 5635 5635 5636 5637 5637 5637 5637 5637 5637 5638 5640 5642 5645 5649 5653 5657 5662 5667 5672 5678 5684 5688 5693 5696 5699 5701 5703 5705 5706 5707 5708 5708 5708 5707 5706 5705 5704
5635 5634 5634 5635 5635 5635 5636 5636 5635 5634 5634 5635 5637 5640 5643 5647 5650 5653 5657 5662 5667 5676 5678 5683 5687 5690 5695 5697 5699 5700 5701 5702 5702 5703 5702 5701 5701 5699
5635 5634 5634 5634 5633 5631 5632 5632 5632 5632 5632 5632 5634 5636 5639 5642 5644 5647 5651 5654 5660 5665 5667 5673 5678 5682 5687 5690 5692 5694 5695 5696 5696 5697 5697 5697 5696 5695
5636 5634 5632 5632 5631 5630 5629 5629 5629 5630 5630 5631 5633 5635 5636 5638 5640 5642 5645 5649 5653 5657 5660 5663 5669 5673 5678 5681 5685 5686 5688 5690 5690 5691 5692 5692 5691 5690
5637 5634 5632 5631 5631 5631 5628 5627 5628 5629 5630 5631 5632 5633 5635 5637 5638 5638 5640 5642 5646 5650 5653 5656 5661 5664 5668 5673 5677 5679 5682 5683 5684 5686 5686 5686 5686 5684
5636 5634 5633 5631 5631 5630 5627 5626 5626 5627 5628 5629 5630 5632 5633 5635 5636 5636 5637 5638 5640 5644 5648 5650 5653 5654 5658 5665 5668 5671 5673 5675 5677 5679 5679 5680 5679 5677
5635 5633 5632 5631 5630 5629 5628 5626 5626 5627 5626 5627 5628 5630 5631 5632 5633 5634 5635 5636 5637 5639 5643 5643 5645 5647 5650 5655 5659 5663 5665 5668 5669 5671 5672 5673 5672 5672
5635 5633 5631 5630 5629 5628 5627 5627 5626 5626 5625 5625 5625 5627 5628 5629 5631 5632 5632 5633 5635 5637 5638 5638 5640 5641 5643 5645 5650 5654 5657 5659 5661 5663 5665 5665 5665 5665
5635 5632 5630 5628 5627 5625 5625 5625 5624 5623 5622 5622 5623 5624 5625 5626 5627 5628 5629 5630 5631 5632 5633 5634 5635 5637 5638 5640 5642 5645 5647 5650 5652 5654 5656 5657 5658 5658
5632 5629 5627 5624 5622 5621 5621 5621 5620 5619 5619 5619 5620 5621 5622 5623 5623 5624 5624 5625 5626 5628 5629 5630 5630 5631 5632 5634 5635 5638 5639 5641 5644 5646 5647 5649 5650 5652
5626 5623 5620 5618 5616 5615 5615 5615 5615 5615 5615 5615 5616 5617 5618 5619 5619 5619 5620 5620 5621 5623 5624 5624 5624 5625 5626 5628 5629 5632 5633 5634 5636 5637 5638 5640 5643 5645
5620 5615 5613 5611 5609 5608 5608 5608 5609 5609 5610 5610 5611 5612 5613 5614 5614 5615 5615 5615 5616 5618 5618 5619 5618 5618 5620 5623 5625 5626 5627 5628 5628 5629 5630 5632 5635 5637
5611 5607 5605 5603 5602 5601 5601 5601 5601 5602 5603 5604 5604 5605 5607 5608 5609 5610 5611 5611 5612 5613 5614 5614 5613 5613 5615 5619 5622 5621 5622 5622 5621 5622 5623 5626 5629 5631
5599 5596 5594 5593 5592 5592 5592 5592 5593 5593 5594 5595 5596 5597 5598 5600 5602 5603 5604 5605 5606 5608 5609 5609 5609 5609 5610 5613 5615 5616 5616 5617 5617 5617 5617 5617 5619 5621
5586 5585 5583 5583 5582 5582 5582 5582 5582 5582 5582 5583 5584 5585 5587 5589 5592 5595 5596 5598 5599 5601 5603 5605 5606 5605 5605 5605 5608 5611 5611 5611 5613 5613 5613 5611 5611 5612
5574 5573 5572 5571 5571 5570 5570 5570 5570 5570 5570 5570 5571 5573 5575 5577 5579 5582 5586 5588 5591 5593 5595 5598 5599 5599 5599 5601 5604 5606 5606 5605 5605 5606 5608 5609 5609 5611
5562 5561 5560 5559 5559 5559 5558 5558 5558 5557 5557 5557 5558 5559 5561 5564 5566 5569 5572 5576 5580 5583 5586 5588 5591 5592 5594 5596 5597 5599 5600 5600 5599 5599 5600 5602 5604 5606